STAZIONE METEO DI BARCELLONA P.G. CENTRO
Dati campionati ogni minuto da Consolle Davis Vantage Pro 2
ed inviati alla rete mediante server Anemos WDS5 wview



Barcellona P.G. Centro more information Barcellona P.G. Centro


Golfo di Patti more information Golfo di Patti


Thunder radar more information blitzortung!


Rain radar  rain snow radar


altri nostri siti meteo:

Rischio IncendiRischio Incendi

Rete NOAA MADIS

Italia Meteo Network

PomeziameteoSito web di stazione meteo amica



Non è richiesta alcuna attenzione speciale.    Non sono presenti avvisi meteorologici di particolare rilevanza

Select another period ( hide this area )

Unità Periodo Custom range Directly to
Metrico Inglese Entrambi
Quotidiano Settimanale mensile Annuale
use both date-selectors for a custom range
previous Day
With this date

WeatherUnderground graphs for this period ( click here )


Quotidiano Riepilogo per Lunedi' 17 Giugno 2019
Tempo Temp. ( °C ) Dew pt. ( °C ) Vento ( km/h ) da Raffica ( km/h ) Pressione ( hPa ) Humid.( % ) Rainrate ( cm ) solare ( W/m2 )
Max28,5 21,9 12,9 W ( 286/1124 ) 20,9 1014,1 80 - 970
Media24,6 19,0 4,1 calma #78/277 10,4 1013,1 71 - 484 #173/277
Min20,3 14,4 -   0,0 1012,1 63 -  
Quotidiano Tabular details for Lunedi' 17 Giugno 2019
Tempo Temp. ( °C ) Dew pt. ( °C ) Vento ( km/h ) da Raffica ( km/h ) Pressione ( hPa ) Humid.( % ) Rainrate ( cm ) solare ( W/m2 )
00:00 21,8 17,3   calma 6,4 1014,1 76 - -
00:05 21,8 17,3 3,2 SE 9,7 1014,1 76 - -
00:10 21,8 17,4 1,6 SE 11,3 1014,1 76 - -
00:15 21,8 17,4 4,8 SE 11,3 1014,1 76 - -
00:20 21,8 17,4   calma 12,9 1014,1 76 - -
00:25 21,7 17,1 3,2 S 12,9 1013,8 75 - -
00:30 21,7 17,2   calma 8,0 1014,1 76 - -
00:35 21,7 17,0 6,4 SE 8,0 1014,1 75 - -
00:40 21,6 16,9 11,3 SE 9,7 1014,1 75 - -
00:45 21,6 16,9 1,6 SE 11,3 1014,1 75 - -
00:50 21,5 16,8   calma 11,3 1013,8 75 - -
00:55 21,5 16,8 4,8 Oriente 8,0 1013,8 75 - -
01:00 21,5 16,8 1,6 SE 11,3 1013,8 75 - -
01:05 21,4 16,7 8,0 S 11,3 1013,8 75 - -
01:10 21,3 16,7 1,6 SE 11,3 1013,4 75 - -
01:15 21,3 16,6 4,8 SE 11,3 1013,4 75 - -
01:20 21,2 16,6 3,2 SE 11,3 1013,4 75 - -
01:25 21,2 16,6   calma 4,8 1013,4 75 - -
01:30 21,2 16,6 4,8 SE 11,3 1013,4 75 - -
01:35 21,3 16,6   calma 4,8 1013,4 75 - -
01:40 21,3 16,4   calma 8,0 1013,4 74 - -
01:45 21,3 16,3 1,6 SE 4,8 1013,4 73 - -
01:50 21,3 16,1   calma 8,0 1013,4 72 - -
01:55 21,2 15,7 1,6 SE 11,3 1013,4 71 - -
02:00 21,2 15,5 1,6 SE 8,0 1013,4 70 - -
02:05 21,2 15,2 4,8 SE 4,8 1013,4 69 - -
02:10 21,2 15,0 3,2 SE 6,4 1013,1 68 - -
02:15 21,2 15,1 1,6 SE 8,0 1013,1 68 - -
02:20 21,2 15,1   calma 11,3 1013,1 68 - -
02:25 21,2 15,1   calma 8,0 1013,1 68 - -
02:30 21,2 14,8 3,2 SE 8,0 1013,1 67 - -
02:35 21,2 15,0 3,2 SE 9,7 1013,1 68 - -
02:40 21,2 15,0   calma 6,4 1013,4 68 - -
02:45 21,1 14,9 3,2 SE 8,0 1013,4 68 - -
02:50 20,9 14,8   calma 8,0 1013,1 68 - -
02:55 20,9 14,8 4,8 SE 11,3 1013,1 68 - -
03:00 20,9 14,6 3,2 SE 12,9 1013,1 67 - -
03:05 20,9 14,5   calma 11,3 1013,1 67 - -
03:10 20,8 14,7 4,8 SE 12,9 1013,4 68 - -
03:15 20,8 14,6   calma 6,4 1013,4 68 - -
03:20 20,8 14,8 3,2 SE 4,8 1013,4 69 - -
03:25 20,8 14,9   calma 4,8 1013,4 69 - -
03:30 20,8 14,9 3,2 SE 6,4 1013,4 69 - -
03:35 20,8 14,9   calma 8,0 1013,4 69 - -
03:40 20,8 14,7 6,4 SE 11,3 1013,4 68 - -
03:45 20,8 14,6 1,6 SE 11,3 1013,1 68 - -
03:50 20,7 14,5 4,8 SE 14,5 1013,1 68 - -
03:55 20,6 14,4 1,6 Oriente 14,5 1013,1 68 - -
04:00 20,6 14,4   calma 12,9 1013,1 68 - -
04:05 20,6 14,6   calma 6,4 1013,1 69 - -
04:10 20,6 14,6   calma 6,4 1013,1 69 - -
04:15 20,6 14,8 3,2 SE 11,3 1013,1 70 - -
04:20 20,5 14,8 6,4 SE 11,3 1013,1 70 - -
04:25 20,5 14,8 6,4 SE 9,7 1013,1 70 - -
04:30 20,5 14,6 8,0 SE 8,0 1013,1 69 - -
04:35 20,6 14,6 3,2 SE 11,3 1013,1 69 - -
04:40 20,5 14,6 4,8 SE 9,7 1013,1 69 - -
04:45 20,5 14,6 3,2 SE 8,0 1013,1 69 - -
04:50 20,4 14,6 1,6 SE 14,5 1013,1 69 - -
04:55 20,4 14,6   calma 8,0 1013,1 69 - -
05:00 20,5 14,6 3,2 SE 14,5 1013,1 69 - -
05:05 20,4 14,5 11,3 SE 12,9 1012,8 69 - -
05:10 20,3 14,7 6,4 SE 11,3 1013,1 70 - -
05:15 20,3 14,8 3,2 Oriente 11,3 1013,1 71 - -
05:20 20,3 14,8 9,7 Oriente 12,9 1013,1 71 - -
05:25 20,3 14,8 3,2 SE 9,7 1013,1 71 - -
05:30 20,3 14,8 4,8 SE 9,7 1013,1 71 - -
05:35 20,3 14,8 1,6 SE 6,4 1013,1 71 - -
05:40 20,3 14,8 3,2 SE 8,0 1013,1 71 - 5
05:45 20,3 14,8 1,6 SE 6,4 1013,1 71 - 7
05:50 20,3 14,8   calma 11,3 1013,1 71 - 11
05:55 20,3 14,8 6,4 SE 9,7 1013,1 71 - 16
06:00 20,3 14,9 3,2 Oriente 8,0 1013,1 71 - 19
06:05 20,3 14,9 4,8 SE 11,3 1013,1 71 - 23
06:10 20,4 14,9 3,2 SE 4,8 1013,1 71 - 33
06:15 20,5 15,0 4,8 SE 4,8 1013,1 71 - 44
06:20 20,5 14,8 4,8 SE 11,3 1013,4 70 - 56
06:25 20,4 15,2 4,8 SE 8,0 1013,4 72 - 79
06:30 20,6 15,3   calma 8,0 1013,4 72 - 91
06:35 20,7 15,2 4,8 SE 8,0 1013,4 71 - 91
06:40 20,9 15,4 1,6 SE 4,8 1013,4 71 - 91
06:45 21,1 15,3 8,0 SE 8,0 1013,4 70 - 113
06:50 21,1 15,6 1,6 SE 8,0 1013,4 71 - 121
06:55 21,2 15,7 6,4 SE 8,0 1013,4 71 - 137
07:00 21,3 16,1   calma 6,4 1013,4 72 - 190
07:05 21,6 16,3   calma   1013,8 72 - 120
07:10 21,7 16,2   calma 6,4 1013,4 71 - 118
07:15 21,8 16,3   calma   1013,8 71 - 178
07:20 21,9 16,3   calma   1013,8 71 - 128
07:25 22,1 16,5   calma   1013,8 71 - 156
07:30 22,3 16,6 6,4 Sud 9,7 1013,8 70 - 132
07:35 22,4 16,2 3,2 Sud 9,7 1014,1 68 - 116
07:40 22,5 16,3 3,2 Sud 6,4 1014,1 68 - 156
07:45 22,7 16,7 4,8 S 8,0 1014,1 69 - 246
07:50 22,8 17,1   calma 4,8 1013,8 70 - 216
07:55 23,1 17,3 1,6 SE 4,8 1013,8 70 - 325
08:00 23,4 17,6   calma 6,4 1013,8 70 - 343
08:05 23,7 18,1 1,6 Oriente 4,8 1013,8 71 - 353
08:10 23,9 18,3   calma   1013,8 71 - 371
08:15 24,3 18,7   calma   1013,8 71 - 396
08:20 24,7 18,8 1,6 Oriente 3,2 1013,8 70 - 411
08:25 24,9 18,8   calma 4,8 1013,8 69 - 417
08:30 25,2 19,1   calma 6,4 1013,4 69 - 429
08:35 25,5 19,1   calma   1013,8 68 - 445
08:40 25,6 19,0   calma 8,0 1013,8 67 - 455
08:45 25,5 19,1   calma 6,4 1013,8 68 - 469
08:50 25,4 19,0 3,2 W 6,4 1013,8 68 - 482
08:55 25,2 18,8 1,6 W 3,2 1013,8 68 - 504
09:00 24,9 18,8 1,6 W 4,8 1013,8 69 - 519
09:05 25,3 19,2   calma 3,2 1013,8 69 - 527
09:10 25,6 19,4   calma 6,4 1013,4 69 - 545
09:15 25,8 19,4 1,6 W 6,4 1013,4 68 - 563
09:20 25,8 19,2   calma 8,0 1013,4 67 - 575
09:25 25,9 19,3 6,4 W 8,0 1013,4 67 - 589
09:30 26,2 19,5 1,6 W 8,0 1013,4 67 - 599
09:35 26,2 19,1   calma 8,0 1013,4 65 - 612
09:40 26,3 19,2   calma 4,8 1013,4 65 - 626
09:45 26,6 20,1 8,0 West 12,9 1013,4 68 - 638
09:50 26,3 20,2   calma 11,3 1013,4 69 - 643
09:55 26,2 20,3 3,2 West 12,9 1013,4 70 - 666
10:00 26,3 20,3 6,4 NO 12,9 1013,4 70 - 671
10:05 26,2 20,5 4,8 NO 8,0 1013,4 71 - 680
10:10 26,2 20,5 1,6 NO 9,7 1013,4 71 - 691
10:15 26,3 20,6 4,8 NNW 12,9 1013,4 71 - 698
10:20 26,2 20,5 6,4 West 9,7 1013,4 71 - 712
10:25 26,3 20,6   calma 11,3 1013,4 71 - 728
10:30 26,4 20,7 3,2 West 11,3 1013,4 71 - 737
10:35 26,6 20,6 11,3 West 12,9 1013,4 70 - 740
10:40 26,6 20,7 4,8 W 11,3 1013,4 70 - 754
10:45 26,7 20,7 12,9 NNW 17,7 1013,4 70 - 744
10:50 26,6 20,6   calma 17,7 1013,4 70 - 761
10:55 26,7 20,8 4,8 NNW 14,5 1013,4 70 - 807
11:00 26,8 20,8 4,8 NNW 14,5 1013,4 70 - 844
11:05 26,7 20,7   calma 12,9 1013,4 70 - 851
11:10 26,8 20,8 11,3 NO 14,5 1013,4 70 - 835
11:15 26,7 20,7 6,4 NO 14,5 1013,4 70 - 450
11:20 26,8 21,1   calma 8,0 1013,4 71 - 777
11:25 26,9 20,9 1,6 NO 9,7 1013,4 70 - 782
11:30 26,9 20,9   calma 11,3 1013,4 70 - 867
11:35 27,1 21,1 9,7 W 16,1 1013,4 70 - 849
11:40 26,9 20,9 11,3 W 16,1 1013,4 70 - 831
11:45 27,0 21,0 3,2 NNW 14,5 1013,4 70 - 831
11:50 27,1 21,3 9,7 NNW 14,5 1013,4 71 - 824
11:55 27,1 21,1 12,9 W 17,7 1013,4 70 - 849
12:00 27,2 21,2 4,8 West 16,1 1013,4 70 - 847
12:05 27,4 21,2 12,9 W 16,1 1013,4 69 - 851
12:10 27,3 21,1 8,0 W 16,1 1013,4 69 - 874
12:15 27,3 21,1 8,0 NO 16,1 1013,4 69 - 923
12:20 27,2 21,2 9,7 West 17,7 1013,4 70 - 826
12:25 27,0 21,0 8,0 NO 16,1 1013,4 70 - 970
12:30 27,0 21,0 6,4 NO 12,9 1013,4 70 - 882
12:35 27,3 21,3 8,0 Nord 12,9 1013,4 70 - 870
12:40 27,5 21,3 9,7 SW 14,5 1013,4 69 - 874
12:45 27,8 21,3 9,7 W 14,5 1013,4 68 - 888
12:50 27,8 21,1 6,4 NO 16,1 1013,4 67 - 914
12:55 27,9 21,2 6,4 W 14,5 1013,4 67 - 846
13:00 27,8 20,8 9,7 W 17,7 1013,4 66 - 404
13:05 27,7 21,2 9,7 West 17,7 1013,1 68 - 318
13:10 27,3 20,9 8,0 West 16,1 1013,4 68 - 956
13:15 27,3 20,9 4,8 West 16,1 1013,4 68 - 914
13:20 27,3 20,9 8,0 West 17,7 1013,1 68 - 930
13:25 27,2 20,7 12,9 W 16,1 1013,1 68 - 898
13:35 27,3 20,6 6,4 W 11,3 1013,1 67 - 914
13:40 27,3 20,9   calma 12,9 1013,1 68 - 889
13:45 27,6 20,9 6,4 NO 11,3 1013,1 67 - 895
13:50 27,7 21,2 8,0 W 12,9 1013,1 68 - 840
13:55 27,9 21,2 6,4 West 14,5 1013,1 67 - 858
14:00 27,8 21,1 9,7 West 16,1 1012,8 67 - 844
14:05 27,8 21,1 6,4 West 12,9 1012,8 67 - 828
14:10 27,8 21,3   calma 12,9 1012,8 68 - 828
14:15 27,9 21,2 11,3 W 14,5 1012,8 67 - 735
14:20 27,8 21,1 9,7 West 16,1 1012,8 67 - 814
14:25 27,8 21,1 9,7 West 17,7 1012,8 67 - 744
14:30 27,8 20,8 4,8 West 11,3 1012,8 66 - 793
14:35 27,6 20,9   calma 14,5 1012,8 67 - 795
14:40 27,8 20,6 3,2 West 11,3 1012,8 65 - 786
14:45 27,8 20,8 6,4 W 11,3 1012,4 66 - 786
14:50 28,1 20,8 11,3 West 12,9 1012,4 65 - 724
14:55 28,1 20,6 9,7 West 16,1 1012,4 64 - 744
15:00 28,1 20,6 8,0 NO 12,9 1012,4 64 - 679
15:05 28,3 20,6   calma 9,7 1012,4 63 - 680
15:10 28,3 20,6 8,0 West 16,1 1012,4 63 - 647
15:15 27,9 20,7 8,0 W 16,1 1012,4 65 - 640
15:20 27,7 20,2   calma 16,1 1012,4 64 - 673
15:25 27,7 20,4 8,0 West 12,9 1012,4 65 - 693
15:30 27,8 20,8 6,4 West 12,9 1012,4 66 - 684
15:35 28,1 20,6 4,8 W 12,9 1012,4 64 - 668
15:40 28,3 20,8 8,0 W 11,3 1012,4 64 - 650
15:45 28,3 21,1 4,8 W 14,5 1012,4 65 - 638
15:50 28,2 21,4 9,7 W 12,9 1012,4 67 - 636
15:55 28,3 21,5 11,3 W 14,5 1012,1 67 - 624
16:00 28,2 21,4   calma 12,9 1012,1 67 - 615
16:05 28,4 21,6   calma 9,7 1012,1 67 - 603
16:10 28,3 21,5 3,2 NO 20,9 1012,1 67 - 589
16:15 28,2 21,4 11,3 W 16,1 1012,1 67 - 582
16:20 28,4 21,9 6,4 W 12,9 1012,1 68 - 571
16:25 28,5 21,7 4,8 W 12,9 1012,1 67 - 563
16:30 28,4 21,6 3,2 W 17,7 1012,1 67 - 485
16:35 28,2 21,7 1,6 Nord 11,3 1012,1 68 - 536
16:40 28,4 21,6 3,2 NO 11,3 1012,1 67 - 410
16:45 28,2 21,7 9,7 W 14,5 1012,1 68 - 396
16:50 27,9 21,9 8,0 NO 16,1 1012,1 70 - 504
16:55 27,7 21,7 8,0 W 20,9 1012,1 70 - 469
17:00 27,8 21,8 11,3 NNW 17,7 1012,1 70 - 446
17:05 27,7 21,7 9,7 W 17,7 1012,1 70 - 462
17:10 27,7 21,9   calma 16,1 1012,1 71 - 429
17:15 27,7 21,7 9,7 W 16,1 1012,1 70 - 406
17:20 27,6 21,8 12,9 W 14,5 1012,1 71 - 346
17:25 27,6 21,8 9,7 West 19,3 1012,1 71 - 420
17:30 27,4 21,6 11,3 West 14,5 1012,1 71 - 422
17:35 27,3 21,8 9,7 W 17,7 1012,1 72 - 403
17:40 27,3 21,8 12,9 W 17,7 1012,4 72 - 403
17:45 27,1 21,6 8,0 West 19,3 1012,4 72 - 353
17:50 27,2 21,9 3,2 W 11,3 1012,4 73 - 367
17:55 26,9 21,4 11,3 W 17,7 1012,4 72 - 234
18:00 26,7 21,4 8,0 W 14,5 1012,4 73 - 223
18:05 26,7 21,4 12,9 W 14,5 1012,8 73 - 206
18:10 26,6 21,5 9,7 W 16,1 1012,8 74 - 302
18:15 26,8 21,7   calma 11,3 1012,8 74 - 299
18:20 26,8 21,6   calma 8,0 1012,8 73 - 248
18:25 26,8 21,3   calma 8,0 1012,8 72 - 151
18:30 26,8 21,3 3,2 W 12,9 1012,8 72 - 125
18:35 26,7 21,2 1,6 NO 9,7 1012,8 72 - 113
18:40 26,3 21,3 3,2 West 8,0 1012,4 74 - 109
18:45 26,2 21,1   calma 11,3 1012,4 74 - 111
18:50 26,1 21,3   calma 8,0 1012,4 75 - 107
18:55 26,1 21,3 4,8 West 12,9 1012,4 75 - 91
19:00 26,0 21,2 6,4 W 11,3 1012,4 75 - 77
19:05 26,0 21,2 6,4 W 11,3 1012,4 75 - 72
19:10 26,1 21,2 3,2 W 9,7 1012,4 75 - 54
19:15 25,9 21,1 6,4 W 11,3 1012,4 75 - 49
19:20 25,8 21,2 1,6 W 11,3 1012,4 76 - 49
19:25 25,8 21,2 3,2 W 6,4 1012,4 76 - 39
19:30 25,9 21,1 4,8 W 9,7 1012,4 75 - 25
19:35 25,8 20,9   calma 11,3 1012,4 75 - 14
19:40 25,7 21,1 4,8 W 11,3 1012,4 76 - 12
19:45 25,6 21,2 3,2 W 9,7 1012,4 77 - 11
19:50 25,6 21,2 4,8 W 9,7 1012,4 77 - 9
19:55 25,6 21,2 3,2 W 6,4 1012,8 77 - 7
20:00 25,6 21,2 1,6 W 8,0 1012,4 77 - 5
20:05 25,5 21,3 3,2 W 9,7 1012,4 78 - 5
20:10 25,6 21,4 3,2 West 9,7 1012,8 78 - -
20:15 25,5 21,3 8,0 W 9,7 1012,8 78 - -
20:20 25,3 21,2   calma 9,7 1012,8 78 - -
20:25 25,3 21,4   calma 8,0 1012,8 79 - -
20:30 25,3 21,4 6,4 West 9,7 1012,8 79 - -
20:35 25,3 21,4   calma 9,7 1012,8 79 - -
20:40 25,2 21,3   calma 6,4 1012,8 79 - -
20:45 25,2 21,3 1,6 West 4,8 1012,8 79 - -
20:50 25,2 21,3   calma 3,2 1012,8 79 - -
20:55 25,3 21,3   calma 6,4 1012,8 79 - -
21:00 25,3 21,3 3,2 West 4,8 1012,8 79 - -
21:05 25,3 21,1 4,8 West 8,0 1012,8 78 - -
21:10 25,2 21,0 1,6 West 6,4 1012,8 78 - -
21:15 25,2 21,2   calma 8,0 1012,8 79 - -
21:20 25,1 21,2 4,8 West 8,0 1012,8 79 - -
21:25 25,1 21,1 3,2 West 6,4 1012,8 79 - -
21:30 25,0 21,3 1,6 West 6,4 1012,8 80 - -
21:35 24,9 21,2 3,2 West 4,8 1012,8 80 - -
21:40 24,9 21,2   calma 6,4 1012,8 80 - -
21:45 24,9 21,2   calma 6,4 1012,8 80 - -
21:50 25,0 21,3   calma 8,0 1012,8 80 - -
21:55 25,1 21,3   calma 4,8 1012,8 80 - -
22:00 25,1 21,3   calma 6,4 1013,1 80 - -
22:05 25,1 21,3 4,8 West 6,4 1013,1 80 - -
22:10 25,0 21,1 4,8 West 6,4 1013,1 79 - -
22:15 25,0 21,1 3,2 West 8,0 1013,1 79 - -
22:20 24,9 21,0   calma 6,4 1013,1 79 - -
22:25 25,0 21,1 8,0 West 8,0 1013,1 79 - -
22:30 25,0 21,1 3,2 West 8,0 1013,1 79 - -
22:35 25,0 21,1 1,6 NNW 8,0 1013,1 79 - -
22:40 25,0 21,1 8,0 Oriente 8,0 1013,1 79 - -
22:45 25,0 21,1   calma 8,0 1013,1 79 - -
22:50 25,1 21,1 1,6 Oriente 8,0 1013,1 79 - -
22:55 25,1 21,1   calma 4,8 1013,1 79 - -
23:00 25,1 20,9 4,8 NE 6,4 1013,1 78 - -
23:05 25,0 20,8   calma 6,4 1013,1 78 - -
Quotidiano Riepilogo per Lunedi' 17 Giugno 2019
Tempo Temp. ( °C ) Dew pt. ( °C ) Vento ( km/h ) da Raffica ( km/h ) Pressione ( hPa ) Humid.( % ) Rainrate ( cm ) solare ( W/m2 )
Max28,5 21,9 12,9 W ( 286/1124 ) 20,9 1014,1 80 - 970
Media24,6 19,0 4,1 calma #78/277 10,4 1013,1 71 - 484 #173/277
Min20,3 14,4 -   0,0 1012,1 63 -  
Quotidiano Tabular details for Lunedi' 17 Giugno 2019
Tempo Temp. ( °C ) Dew pt. ( °C ) Vento ( km/h ) da Raffica ( km/h ) Pressione ( hPa ) Humid.( % ) Rainrate ( cm ) solare ( W/m2 )
00:00 21,8 17,3   calma 6,4 1014,1 76 - -
00:05 21,8 17,3 3,2 SE 9,7 1014,1 76 - -
00:10 21,8 17,4 1,6 SE 11,3 1014,1 76 - -
00:15 21,8 17,4 4,8 SE 11,3 1014,1 76 - -
00:20 21,8 17,4   calma 12,9 1014,1 76 - -
00:25 21,7 17,1 3,2 S 12,9 1013,8 75 - -
00:30 21,7 17,2   calma 8,0 1014,1 76 - -
00:35 21,7 17,0 6,4 SE 8,0 1014,1 75 - -
00:40 21,6 16,9 11,3 SE 9,7 1014,1 75 - -
00:45 21,6 16,9 1,6 SE 11,3 1014,1 75 - -
00:50 21,5 16,8   calma 11,3 1013,8 75 - -
00:55 21,5 16,8 4,8 Oriente 8,0 1013,8 75 - -
01:00 21,5 16,8 1,6 SE 11,3 1013,8 75 - -
01:05 21,4 16,7 8,0 S 11,3 1013,8 75 - -
01:10 21,3 16,7 1,6 SE 11,3 1013,4 75 - -
01:15 21,3 16,6 4,8 SE 11,3 1013,4 75 - -
01:20 21,2 16,6 3,2 SE 11,3 1013,4 75 - -
01:25 21,2 16,6   calma 4,8 1013,4 75 - -
01:30 21,2 16,6 4,8 SE 11,3 1013,4 75 - -
01:35 21,3 16,6   calma 4,8 1013,4 75 - -
01:40 21,3 16,4   calma 8,0 1013,4 74 - -
01:45 21,3 16,3 1,6 SE 4,8 1013,4 73 - -
01:50 21,3 16,1   calma 8,0 1013,4 72 - -
01:55 21,2 15,7 1,6 SE 11,3 1013,4 71 - -
02:00 21,2 15,5 1,6 SE 8,0 1013,4 70 - -
02:05 21,2 15,2 4,8 SE 4,8 1013,4 69 - -
02:10 21,2 15,0 3,2 SE 6,4 1013,1 68 - -
02:15 21,2 15,1 1,6 SE 8,0 1013,1 68 - -
02:20 21,2 15,1   calma 11,3 1013,1 68 - -
02:25 21,2 15,1   calma 8,0 1013,1 68 - -
02:30 21,2 14,8 3,2 SE 8,0 1013,1 67 - -
02:35 21,2 15,0 3,2 SE 9,7 1013,1 68 - -
02:40 21,2 15,0   calma 6,4 1013,4 68 - -
02:45 21,1 14,9 3,2 SE 8,0 1013,4 68 - -
02:50 20,9 14,8   calma 8,0 1013,1 68 - -
02:55 20,9 14,8 4,8 SE 11,3 1013,1 68 - -
03:00 20,9 14,6 3,2 SE 12,9 1013,1 67 - -
03:05 20,9 14,5   calma 11,3 1013,1 67 - -
03:10 20,8 14,7 4,8 SE 12,9 1013,4 68 - -
03:15 20,8 14,6   calma 6,4 1013,4 68 - -
03:20 20,8 14,8 3,2 SE 4,8 1013,4 69 - -
03:25 20,8 14,9   calma 4,8 1013,4 69 - -
03:30 20,8 14,9 3,2 SE 6,4 1013,4 69 - -
03:35 20,8 14,9   calma 8,0 1013,4 69 - -
03:40 20,8 14,7 6,4 SE 11,3 1013,4 68 - -
03:45 20,8 14,6 1,6 SE 11,3 1013,1 68 - -
03:50 20,7 14,5 4,8 SE 14,5 1013,1 68 - -
03:55 20,6 14,4 1,6 Oriente 14,5 1013,1 68 - -
04:00 20,6 14,4   calma 12,9 1013,1 68 - -
04:05 20,6 14,6   calma 6,4 1013,1 69 - -
04:10 20,6 14,6   calma 6,4 1013,1 69 - -
04:15 20,6 14,8 3,2 SE 11,3 1013,1 70 - -
04:20 20,5 14,8 6,4 SE 11,3 1013,1 70 - -
04:25 20,5 14,8 6,4 SE 9,7 1013,1 70 - -
04:30 20,5 14,6 8,0 SE 8,0 1013,1 69 - -
04:35 20,6 14,6 3,2 SE 11,3 1013,1 69 - -
04:40 20,5 14,6 4,8 SE 9,7 1013,1 69 - -
04:45 20,5 14,6 3,2 SE 8,0 1013,1 69 - -
04:50 20,4 14,6 1,6 SE 14,5 1013,1 69 - -
04:55 20,4 14,6   calma 8,0 1013,1 69 - -
05:00 20,5 14,6 3,2 SE 14,5 1013,1 69 - -
05:05 20,4 14,5 11,3 SE 12,9 1012,8 69 - -
05:10 20,3 14,7 6,4 SE 11,3 1013,1 70 - -
05:15 20,3 14,8 3,2 Oriente 11,3 1013,1 71 - -
05:20 20,3 14,8 9,7 Oriente 12,9 1013,1 71 - -
05:25 20,3 14,8 3,2 SE 9,7 1013,1 71 - -
05:30 20,3 14,8 4,8 SE 9,7 1013,1 71 - -
05:35 20,3 14,8 1,6 SE 6,4 1013,1 71 - -
05:40 20,3 14,8 3,2 SE 8,0 1013,1 71 - 5
05:45 20,3 14,8 1,6 SE 6,4 1013,1 71 - 7
05:50 20,3 14,8   calma 11,3 1013,1 71 - 11
05:55 20,3 14,8 6,4 SE 9,7 1013,1 71 - 16
06:00 20,3 14,9 3,2 Oriente 8,0 1013,1 71 - 19
06:05 20,3 14,9 4,8 SE 11,3 1013,1 71 - 23
06:10 20,4 14,9 3,2 SE 4,8 1013,1 71 - 33
06:15 20,5 15,0 4,8 SE 4,8 1013,1 71 - 44
06:20 20,5 14,8 4,8 SE 11,3 1013,4 70 - 56
06:25 20,4 15,2 4,8 SE 8,0 1013,4 72 - 79
06:30 20,6 15,3   calma 8,0 1013,4 72 - 91
06:35 20,7 15,2 4,8 SE 8,0 1013,4 71 - 91
06:40 20,9 15,4 1,6 SE 4,8 1013,4 71 - 91
06:45 21,1 15,3 8,0 SE 8,0 1013,4 70 - 113
06:50 21,1 15,6 1,6 SE 8,0 1013,4 71 - 121
06:55 21,2 15,7 6,4 SE 8,0 1013,4 71 - 137
07:00 21,3 16,1   calma 6,4 1013,4 72 - 190
07:05 21,6 16,3   calma   1013,8 72 - 120
07:10 21,7 16,2   calma 6,4 1013,4 71 - 118
07:15 21,8 16,3   calma   1013,8 71 - 178
07:20 21,9 16,3   calma   1013,8 71 - 128
07:25 22,1 16,5   calma   1013,8 71 - 156
07:30 22,3 16,6 6,4 Sud 9,7 1013,8 70 - 132
07:35 22,4 16,2 3,2 Sud 9,7 1014,1 68 - 116
07:40 22,5 16,3 3,2 Sud 6,4 1014,1 68 - 156
07:45 22,7 16,7 4,8 S 8,0 1014,1 69 - 246
07:50 22,8 17,1   calma 4,8 1013,8 70 - 216
07:55 23,1 17,3 1,6 SE 4,8 1013,8 70 - 325
08:00 23,4 17,6   calma 6,4 1013,8 70 - 343
08:05 23,7 18,1 1,6 Oriente 4,8 1013,8 71 - 353
08:10 23,9 18,3   calma   1013,8 71 - 371
08:15 24,3 18,7   calma   1013,8 71 - 396
08:20 24,7 18,8 1,6 Oriente 3,2 1013,8 70 - 411
08:25 24,9 18,8   calma 4,8 1013,8 69 - 417
08:30 25,2 19,1   calma 6,4 1013,4 69 - 429
08:35 25,5 19,1   calma   1013,8 68 - 445
08:40 25,6 19,0   calma 8,0 1013,8 67 - 455
08:45 25,5 19,1   calma 6,4 1013,8 68 - 469
08:50 25,4 19,0 3,2 W 6,4 1013,8 68 - 482
08:55 25,2 18,8 1,6 W 3,2 1013,8 68 - 504
09:00 24,9 18,8 1,6 W 4,8 1013,8 69 - 519
09:05 25,3 19,2   calma 3,2 1013,8 69 - 527
09:10 25,6 19,4   calma 6,4 1013,4 69 - 545
09:15 25,8 19,4 1,6 W 6,4 1013,4 68 - 563
09:20 25,8 19,2   calma 8,0 1013,4 67 - 575
09:25 25,9 19,3 6,4 W 8,0 1013,4 67 - 589
09:30 26,2 19,5 1,6 W 8,0 1013,4 67 - 599
09:35 26,2 19,1   calma 8,0 1013,4 65 - 612
09:40 26,3 19,2   calma 4,8 1013,4 65 - 626
09:45 26,6 20,1 8,0 West 12,9 1013,4 68 - 638
09:50 26,3 20,2   calma 11,3 1013,4 69 - 643
09:55 26,2 20,3 3,2 West 12,9 1013,4 70 - 666
10:00 26,3 20,3 6,4 NO 12,9 1013,4 70 - 671
10:05 26,2 20,5 4,8 NO 8,0 1013,4 71 - 680
10:10 26,2 20,5 1,6 NO 9,7 1013,4 71 - 691
10:15 26,3 20,6 4,8 NNW 12,9 1013,4 71 - 698
10:20 26,2 20,5 6,4 West 9,7 1013,4 71 - 712
10:25 26,3 20,6   calma 11,3 1013,4 71 - 728
10:30 26,4 20,7 3,2 West 11,3 1013,4 71 - 737
10:35 26,6 20,6 11,3 West 12,9 1013,4 70 - 740
10:40 26,6 20,7 4,8 W 11,3 1013,4 70 - 754
10:45 26,7 20,7 12,9 NNW 17,7 1013,4 70 - 744
10:50 26,6 20,6   calma 17,7 1013,4 70 - 761
10:55 26,7 20,8 4,8 NNW 14,5 1013,4 70 - 807
11:00 26,8 20,8 4,8 NNW 14,5 1013,4 70 - 844
11:05 26,7 20,7   calma 12,9 1013,4 70 - 851
11:10 26,8 20,8 11,3 NO 14,5 1013,4 70 - 835
11:15 26,7 20,7 6,4 NO 14,5 1013,4 70 - 450
11:20 26,8 21,1   calma 8,0 1013,4 71 - 777
11:25 26,9 20,9 1,6 NO 9,7 1013,4 70 - 782
11:30 26,9 20,9   calma 11,3 1013,4 70 - 867
11:35 27,1 21,1 9,7 W 16,1 1013,4 70 - 849
11:40 26,9 20,9 11,3 W 16,1 1013,4 70 - 831
11:45 27,0 21,0 3,2 NNW 14,5 1013,4 70 - 831
11:50 27,1 21,3 9,7 NNW 14,5 1013,4 71 - 824
11:55 27,1 21,1 12,9 W 17,7 1013,4 70 - 849
12:00 27,2 21,2 4,8 West 16,1 1013,4 70 - 847
12:05 27,4 21,2 12,9 W 16,1 1013,4 69 - 851
12:10 27,3 21,1 8,0 W 16,1 1013,4 69 - 874
12:15 27,3 21,1 8,0 NO 16,1 1013,4 69 - 923
12:20 27,2 21,2 9,7 West 17,7 1013,4 70 - 826
12:25 27,0 21,0 8,0 NO 16,1 1013,4 70 - 970
12:30 27,0 21,0 6,4 NO 12,9 1013,4 70 - 882
12:35 27,3 21,3 8,0 Nord 12,9 1013,4 70 - 870
12:40 27,5 21,3 9,7 SW 14,5 1013,4 69 - 874
12:45 27,8 21,3 9,7 W 14,5 1013,4 68 - 888
12:50 27,8 21,1 6,4 NO 16,1 1013,4 67 - 914
12:55 27,9 21,2 6,4 W 14,5 1013,4 67 - 846
13:00 27,8 20,8 9,7 W 17,7 1013,4 66 - 404
13:05 27,7 21,2 9,7 West 17,7 1013,1 68 - 318
13:10 27,3 20,9 8,0 West 16,1 1013,4 68 - 956
13:15 27,3 20,9 4,8 West 16,1 1013,4 68 - 914
13:20 27,3 20,9 8,0 West 17,7 1013,1 68 - 930
13:25 27,2 20,7 12,9 W 16,1 1013,1 68 - 898
13:35 27,3 20,6 6,4 W 11,3 1013,1 67 - 914
13:40 27,3 20,9   calma 12,9 1013,1 68 - 889
13:45 27,6 20,9 6,4 NO 11,3 1013,1 67 - 895
13:50 27,7 21,2 8,0 W 12,9 1013,1 68 - 840
13:55 27,9 21,2 6,4 West 14,5 1013,1 67 - 858
14:00 27,8 21,1 9,7 West 16,1 1012,8 67 - 844
14:05 27,8 21,1 6,4 West 12,9 1012,8 67 - 828
14:10 27,8 21,3   calma 12,9 1012,8 68 - 828
14:15 27,9 21,2 11,3 W 14,5 1012,8 67 - 735
14:20 27,8 21,1 9,7 West 16,1 1012,8 67 - 814
14:25 27,8 21,1 9,7 West 17,7 1012,8 67 - 744
14:30 27,8 20,8 4,8 West 11,3 1012,8 66 - 793
14:35 27,6 20,9   calma 14,5 1012,8 67 - 795
14:40 27,8 20,6 3,2 West 11,3 1012,8 65 - 786
14:45 27,8 20,8 6,4 W 11,3 1012,4 66 - 786
14:50 28,1 20,8 11,3 West 12,9 1012,4 65 - 724
14:55 28,1 20,6 9,7 West 16,1 1012,4 64 - 744
15:00 28,1 20,6 8,0 NO 12,9 1012,4 64 - 679
15:05 28,3 20,6   calma 9,7 1012,4 63 - 680
15:10 28,3 20,6 8,0 West 16,1 1012,4 63 - 647
15:15 27,9 20,7 8,0 W 16,1 1012,4 65 - 640
15:20 27,7 20,2   calma 16,1 1012,4 64 - 673
15:25 27,7 20,4 8,0 West 12,9 1012,4 65 - 693
15:30 27,8 20,8 6,4 West 12,9 1012,4 66 - 684
15:35 28,1 20,6 4,8 W 12,9 1012,4 64 - 668
15:40 28,3 20,8 8,0 W 11,3 1012,4 64 - 650
15:45 28,3 21,1 4,8 W 14,5 1012,4 65 - 638
15:50 28,2 21,4 9,7 W 12,9 1012,4 67 - 636
15:55 28,3 21,5 11,3 W 14,5 1012,1 67 - 624
16:00 28,2 21,4   calma 12,9 1012,1 67 - 615
16:05 28,4 21,6   calma 9,7 1012,1 67 - 603
16:10 28,3 21,5 3,2 NO 20,9 1012,1 67 - 589
16:15 28,2 21,4 11,3 W 16,1 1012,1 67 - 582
16:20 28,4 21,9 6,4 W 12,9 1012,1 68 - 571
16:25 28,5 21,7 4,8 W 12,9 1012,1 67 - 563
16:30 28,4 21,6 3,2 W 17,7 1012,1 67 - 485
16:35 28,2 21,7 1,6 Nord 11,3 1012,1 68 - 536
16:40 28,4 21,6 3,2 NO 11,3 1012,1 67 - 410
16:45 28,2 21,7 9,7 W 14,5 1012,1 68 - 396
16:50 27,9 21,9 8,0 NO 16,1 1012,1 70 - 504
16:55 27,7 21,7 8,0 W 20,9 1012,1 70 - 469
17:00 27,8 21,8 11,3 NNW 17,7 1012,1 70 - 446
17:05 27,7 21,7 9,7 W 17,7 1012,1 70 - 462
17:10 27,7 21,9   calma 16,1 1012,1 71 - 429
17:15 27,7 21,7 9,7 W 16,1 1012,1 70 - 406
17:20 27,6 21,8 12,9 W 14,5 1012,1 71 - 346
17:25 27,6 21,8 9,7 West 19,3 1012,1 71 - 420
17:30 27,4 21,6 11,3 West 14,5 1012,1 71 - 422
17:35 27,3 21,8 9,7 W 17,7 1012,1 72 - 403
17:40 27,3 21,8 12,9 W 17,7 1012,4 72 - 403
17:45 27,1 21,6 8,0 West 19,3 1012,4 72 - 353
17:50 27,2 21,9 3,2 W 11,3 1012,4 73 - 367
17:55 26,9 21,4 11,3 W 17,7 1012,4 72 - 234
18:00 26,7 21,4 8,0 W 14,5 1012,4 73 - 223
18:05 26,7 21,4 12,9 W 14,5 1012,8 73 - 206
18:10 26,6 21,5 9,7 W 16,1 1012,8 74 - 302
18:15 26,8 21,7   calma 11,3 1012,8 74 - 299
18:20 26,8 21,6   calma 8,0 1012,8 73 - 248
18:25 26,8 21,3   calma 8,0 1012,8 72 - 151
18:30 26,8 21,3 3,2 W 12,9 1012,8 72 - 125
18:35 26,7 21,2 1,6 NO 9,7 1012,8 72 - 113
18:40 26,3 21,3 3,2 West 8,0 1012,4 74 - 109
18:45 26,2 21,1   calma 11,3 1012,4 74 - 111
18:50 26,1 21,3   calma 8,0 1012,4 75 - 107
18:55 26,1 21,3 4,8 West 12,9 1012,4 75 - 91
19:00 26,0 21,2 6,4 W 11,3 1012,4 75 - 77
19:05 26,0 21,2 6,4 W 11,3 1012,4 75 - 72
19:10 26,1 21,2 3,2 W 9,7 1012,4 75 - 54
19:15 25,9 21,1 6,4 W 11,3 1012,4 75 - 49
19:20 25,8 21,2 1,6 W 11,3 1012,4 76 - 49
19:25 25,8 21,2 3,2 W 6,4 1012,4 76 - 39
19:30 25,9 21,1 4,8 W 9,7 1012,4 75 - 25
19:35 25,8 20,9   calma 11,3 1012,4 75 - 14
19:40 25,7 21,1 4,8 W 11,3 1012,4 76 - 12
19:45 25,6 21,2 3,2 W 9,7 1012,4 77 - 11
19:50 25,6 21,2 4,8 W 9,7 1012,4 77 - 9
19:55 25,6 21,2 3,2 W 6,4 1012,8 77 - 7
20:00 25,6 21,2 1,6 W 8,0 1012,4 77 - 5
20:05 25,5 21,3 3,2 W 9,7 1012,4 78 - 5
20:10 25,6 21,4 3,2 West 9,7 1012,8 78 - -
20:15 25,5 21,3 8,0 W 9,7 1012,8 78 - -
20:20 25,3 21,2   calma 9,7 1012,8 78 - -
20:25 25,3 21,4   calma 8,0 1012,8 79 - -
20:30 25,3 21,4 6,4 West 9,7 1012,8 79 - -
20:35 25,3 21,4   calma 9,7 1012,8 79 - -
20:40 25,2 21,3   calma 6,4 1012,8 79 - -
20:45 25,2 21,3 1,6 West 4,8 1012,8 79 - -
20:50 25,2 21,3   calma 3,2 1012,8 79 - -
20:55 25,3 21,3   calma 6,4 1012,8 79 - -
21:00 25,3 21,3 3,2 West 4,8 1012,8 79 - -
21:05 25,3 21,1 4,8 West 8,0 1012,8 78 - -
21:10 25,2 21,0 1,6 West 6,4 1012,8 78 - -
21:15 25,2 21,2   calma 8,0 1012,8 79 - -
21:20 25,1 21,2 4,8 West 8,0 1012,8 79 - -
21:25 25,1 21,1 3,2 West 6,4 1012,8 79 - -
21:30 25,0 21,3 1,6 West 6,4 1012,8 80 - -
21:35 24,9 21,2 3,2 West 4,8 1012,8 80 - -
21:40 24,9 21,2   calma 6,4 1012,8 80 - -
21:45 24,9 21,2   calma 6,4 1012,8 80 - -
21:50 25,0 21,3   calma 8,0 1012,8 80 - -
21:55 25,1 21,3   calma 4,8 1012,8 80 - -
22:00 25,1 21,3   calma 6,4 1013,1 80 - -
22:05 25,1 21,3 4,8 West 6,4 1013,1 80 - -
22:10 25,0 21,1 4,8 West 6,4 1013,1 79 - -
22:15 25,0 21,1 3,2 West 8,0 1013,1 79 - -
22:20 24,9 21,0   calma 6,4 1013,1 79 - -
22:25 25,0 21,1 8,0 West 8,0 1013,1 79 - -
22:30 25,0 21,1 3,2 West 8,0 1013,1 79 - -
22:35 25,0 21,1 1,6 NNW 8,0 1013,1 79 - -
22:40 25,0 21,1 8,0 Oriente 8,0 1013,1 79 - -
22:45 25,0 21,1   calma 8,0 1013,1 79 - -
22:50 25,1 21,1 1,6 Oriente 8,0 1013,1 79 - -
22:55 25,1 21,1   calma 4,8 1013,1 79 - -
23:00 25,1 20,9 4,8 NE 6,4 1013,1 78 - -
23:05 25,0 20,8   calma 6,4 1013,1 78 - -

Download your copy of this data-set  here

Our weather-data as stored at Weather Underground. Script sviluppato da Jim McMurry. Adattato per il modello da Leuven-Template.eu

Potete trovare le nostre info meteo anche a:

European Weather Network

Weather Underground

AWEKAS

Citizen Weather Observer Program (CWOP)

HAMweather, WeatherForYou, PWS Weather

Attrezzature usate:

Stazione meteo
Davis VP2

Programma gestore dati meteo
WVIEW

Server per i dati meteo
WDS5 Ecoblack

Davis VP2

WVIEW

WDS5 Ecoblack